GW2742 Weather Reports


time (UTC)temp
F
wind
direction
speed
knots
gust
knots
rain 1hr
in
rain 24hr
in
rain mn
in
humidity
%
barometer
mb
20260506011602 43 41 5.2 12.2 0.00 0.00 0.00 45 1016.0
20260506011026 43 25 6.1 13.9 0.00 0.00 0.00 45 1015.8
20260506010526 44 22 7.0 13.9 0.00 0.00 0.00 46 1015.7
20260506010037 44 44 6.1 12.2 0.00 0.00 0.00 46 1015.7
20260506005525 44 13 7.0 12.2 0.00 0.00 0.00 46 1015.6
20260506005025 44 13 5.2 12.2 0.00 0.00 0.00 45 1015.5
20260506004552 44 33 7.0 13.0 0.00 0.00 0.00 46 1015.5
20260506004026 44 27 6.1 13.9 0.00 0.00 0.00 48 1015.5
20260506003524 44 63 9.6 13.9 0.00 0.00 0.00 47 1015.5
20260506003036 44 1 7.0 12.2 0.00 0.00 0.00 48 1015.5
20260506002524 43 6 7.8 13.0 0.00 0.00 0.00 49 1015.5
20260506002024 43 32 7.0 13.0 0.00 0.00 0.00 49 1015.4
20260506001544 43 30 7.8 13.0 0.00 0.00 0.00 49 1015.5
20260506001027 43 50 8.7 13.0 0.00 0.00 0.00 49 1015.5
20260506000527 43 56 7.0 14.8 0.00 0.00 0.00 50 1015.3
20260506000108 43 66 7.8 14.8 0.00 0.00 0.00 50 1015.4
20260505235527 43 22 7.0 12.2 0.00 0.00 0.00 50 1015.4
20260505235027 43 45 7.0 11.3 0.00 0.00 0.00 52 1015.2
20260505234544 43 51 5.2 11.3 0.00 0.00 0.00 53 1015.1
20260505234027 43 53 4.3 16.5 0.00 0.00 0.00 53 1015.2
20260505233528 43 5 7.8 16.5 0.00 0.00 0.00 52 1015.3
20260505233037 43 53 10.4 16.5 0.00 0.00 0.00 51 1015.0
20260505232526 43 44 8.7 15.6 0.00 0.00 0.00 51 1015.1
20260505232024 44 41 7.0 17.4 0.00 0.00 0.00 49 1015.0
20260505231537 44 27 10.4 17.4 0.00 0.00 0.00 51 1014.7
20260505231024 43 20 8.7 16.5 0.00 0.00 0.00 53 1014.7
20260505230524 43 8 9.6 15.6 0.00 0.00 0.00 52 1014.6
20260505230058 43 75 8.7 16.5 0.00 0.00 0.00 52 1014.8
20260505225528 43 27 7.0 18.2 0.00 0.00 0.00 52 1014.9
20260505225024 43 354 10.4 18.2 0.00 0.00 0.00 51 1014.8
20260505224541 43 29 10.4 18.2 0.00 0.00 0.00 52 1014.8
20260505224023 43 20 10.4 18.2 0.00 0.00 0.00 52 1014.8
20260505223525 43 41 11.3 18.2 0.00 0.00 0.00 52 1014.6
20260505223039 44 39 7.8 18.2 0.00 0.00 0.00 49 1014.6
20260505222526 45 34 10.4 18.2 0.00 0.00 0.00 45 1014.5
20260505222025 47 53 7.0 17.4 0.00 0.00 0.00 42 1014.4
20260505221536 48 21 7.8 18.2 0.00 0.00 0.00 43 1014.3
20260505221024 46 49 5.2 18.2 0.00 0.00 0.00 45 1014.4
20260505220523 46 43 8.7 20.9 0.00 0.00 0.00 47 1014.2
20260505220039 45 30 7.0 20.9 0.00 0.00 0.00 47 1014.2
20260505215523 46 32 10.4 19.1 0.00 0.00 0.00 47 1014.2
20260505215023 46 53 7.8 20.0 0.00 0.00 0.00 49 1014.2
20260505214542 45 41 12.2 20.0 0.00 0.00 0.00 52 1014.3
20260505214024 46 14 11.3 19.1 0.00 0.00 0.00 49 1014.2
20260505213525 46 14 12.2 19.1 0.00 0.00 0.00 47 1014.3
20260505213039 47 46 8.7 13.9 0.00 0.00 0.00 48 1014.5
20260505212524 48 9 6.1 12.2 0.00 0.00 0.00 34 1014.4
20260505212023 48 322 4.3 13.9 0.00 0.00 0.00 45 1014.5
20260505211540 47 14 7.0 13.9 0.00 0.00 0.00 45 1014.3
20260505211022 48 49 7.0 13.0 0.00 0.00 0.00 43 1014.4
20260505210528 47 32 7.0 12.2 0.00 0.00 0.00 42 1014.4
20260505210042 48 66 3.5 10.4 0.00 0.00 0.00 43 1014.5
20260505205525 49 331 6.1 10.4 0.00 0.00 0.00 45 1014.6
20260505205028 49 359 5.2 9.6 0.00 0.00 0.00 34 1014.6
20260505204545 49 354 4.3 11.3 0.00 0.00 0.00 38 1014.5
20260505204023 47 356 4.3 17.4 0.00 0.00 0.00 43 1014.6
20260505203525 45 5 10.4 17.4 0.00 0.00 0.00 51 1014.9
20260505203052 45 6 7.8 15.6 0.00 0.00 0.00 53 1014.8
20260505202523 45 61 7.0 19.1 0.00 0.00 0.00 57 1014.8
20260505202023 43 28 9.6 19.1 0.00 0.00 0.00 56 1014.9
20260505201541 44 54 11.3 18.2 0.00 0.00 0.00 56 1015.0
20260505201024 45 65 11.3 18.2 0.00 0.00 0.00 55 1015.0
20260505200524 47 43 7.8 17.4 0.00 0.00 0.00 52 1015.0
20260505200038 49 338 7.8 14.8 0.00 0.00 0.00 42 1015.0
20260505195522 48 359 7.8 15.6 0.00 0.00 0.00 45 1014.9
20260505195022 47 321 6.1 17.4 0.00 0.00 0.00 46 1015.1
20260505194550 47 354 8.7 17.4 0.00 0.00 0.00 43 1014.9
20260505194026 47 342 8.7 15.6 0.00 0.00 0.00 46 1014.9
20260505193523 48 360 6.1 13.9 0.00 0.00 0.00 46 1014.9
20260505193038 48 319 5.2 13.0 0.00 0.00 0.00 45 1014.8
20260505192526 47 337 4.3 12.2 0.00 0.00 0.00 47 1015.0
20260505192024 47 341 7.0 14.8 0.00 0.00 0.00 46 1015.1
20260505191553 47 328 7.8 14.8 0.00 0.00 0.00 46 1015.0
20260505191025 48 345 7.8 14.8 0.00 0.00 0.00 44 1015.2
20260505190527 48 324 7.0 14.8 0.00 0.00 0.00 46 1015.1
20260505190041 48 347 7.0 14.8 0.00 0.00 0.00 43 1015.1
20260505185523 48 357 7.0 18.2 0.00 0.00 0.00 42 1015.2
20260505185025 48 342 7.8 18.2 0.00 0.00 0.00 41 1015.2
20260505184538 48 355 7.8 13.9 0.00 0.00 0.00 42 1015.1
20260505184025 48 332 4.3 13.9 0.00 0.00 0.00 43 1015.1
20260505183526 48 288 5.2 12.2 0.00 0.00 0.00 43 1015.2
20260505183043 47 323 7.0 12.2 0.00 0.00 0.00 44 1015.3
20260505182523 47 292 4.3 13.0 0.00 0.00 0.00 44 1015.3
20260505182024 47 332 4.3 13.0 0.00 0.00 0.00 44 1015.4
20260505181538 46 283 6.1 13.0 0.00 0.00 0.00 44 1015.4
20260505181025 47 322 5.2 13.0 0.00 0.00 0.00 44 1015.4
20260505180523 47 356 7.0 16.5 0.00 0.00 0.00 44 1015.4
20260505180047 47 290 5.2 16.5 0.00 0.00 0.00 46 1015.3
20260505175526 46 308 5.2 16.5 0.00 0.00 0.00 44 1015.4
20260505175026 46 330 5.2 12.2 0.00 0.00 0.00 45 1015.6
20260505174540 46 353 4.3 12.2 0.00 0.00 0.00 46 1015.6
20260505174022 46 347 5.2 11.3 0.00 0.00 0.00 45 1015.6
20260505173526 47 334 4.3 12.2 0.00 0.00 0.00 47 1015.7
20260505173036 46 340 5.2 12.2 0.00 0.00 0.00 48 1015.7
20260505172522 45 339 5.2 12.2 0.00 0.00 0.00 51 1015.7
20260505172022 43 306 4.3 14.8 0.00 0.00 0.00 50 1015.7
20260505171538 43 360 7.8 14.8 0.00 0.00 0.00 49 1015.8
20260505171024 44 343 5.2 13.0 0.00 0.00 0.00 48 1015.9
20260505170525 44 343 5.2 13.0 0.00 0.00 0.00 46 1015.7
20260505170037 44 345 6.1 13.0 0.00 0.00 0.00 44 1015.8
20260505165523 45 335 4.3 12.2 0.00 0.00 0.00 44 1015.8
20260505165023 45 357 6.1 12.2 0.00 0.00 0.00 43 1015.9
20260505164536 45 359 5.2 10.4 0.00 0.00 0.00 43 1016.0
20260505164024 45 352 4.3 10.4 0.00 0.00 0.00 44 1016.0
20260505163523 45 356 6.1 10.4 0.00 0.00 0.00 43 1016.0
20260505163037 44 321 4.3 14.8 0.00 0.00 0.00 42 1015.8
20260505162524 45 352 4.3 14.8 0.00 0.00 0.00 41 1015.9
20260505162023 46 351 5.2 13.9 0.00 0.00 0.00 43 1015.8
20260505161537 45 302 5.2 12.2 0.00 0.00 0.00 42 1016.0
20260505161023 45 321 4.3 10.4 0.00 0.00 0.00 42 1015.9
20260505160524 46 357 5.2 10.4 0.00 0.00 0.00 41 1015.8
20260505153036 45 35 1.7 5.2 0.00 0.00 0.00 43 1016.0
20260505152524 45 338 0.9 4.3 0.00 0.00 0.00 44 1016.1
20260505152026 44 34 0.9 3.5 0.00 0.00 0.00 48 1016.2
20260505151540 43 256 0.9 3.5 0.00 0.00 0.00 48 1016.2
20260505151026 43 127 0.9 3.5 0.00 0.00 0.00 51 1016.2
20260505150523 42 175 0.9 3.5 0.00 0.00 0.00 50 1016.2
20260505140525 39 236 1.7 3.5 0.00 0.00 0.00 60 1016.6
20260505125023 34 257 0.9 2.6 0.00 0.00 0.00 70 1015.8
20260505124550 33 198 0.9 2.6 0.00 0.00 0.00 71 1015.8
20260505124025 33 193 0.0 2.6 0.00 0.00 0.00 71 1015.8
20260505123523 33 0 0.0 2.6 0.00 0.00 0.00 71 1015.8
20260505123049 33 274 0.9 2.6 0.00 0.00 0.00 70 1015.7
20260505122523 33 0 0.0 1.7 0.00 0.00 0.00 70 1015.6
20260505122031 33 0 0.0 1.7 0.00 0.00 0.00 70 1015.5
20260505121607 33 0 0.0 1.7 0.00 0.00 0.00 69 1015.5
20260505121023 33 0 0.0 1.7 0.00 0.00 0.00 70 1015.4
20260505120522 33 274 0.9 1.7 0.00 0.00 0.00 69 1015.5
20260505120037 34 273 0.9 1.7 0.00 0.00 0.00 68 1015.4
20260505115522 34 0 0.0 1.7 0.00 0.00 0.00 68 1015.4
20260505115022 34 0 0.0 1.7 0.00 0.00 0.00 67 1015.4
20260505114536 34 0 0.9 1.7 0.00 0.00 0.00 66 1015.4
20260505114023 34 131 0.0 2.6 0.00 0.00 0.00 65 1015.3
20260505113522 35 0 0.0 3.5 0.00 0.00 0.00 65 1015.2
20260505113046 35 131 0.9 3.5 0.00 0.00 0.00 65 1015.2
20260505112530 35 89 0.9 1.7 0.00 0.00 0.00 65 1015.2
20260505112024 35 89 0.0 3.5 0.00 0.00 0.00 64 1015.1
20260505111540 36 0 0.0 3.5 0.00 0.00 0.00 63 1015.2
20260505111025 36 112 0.9 3.5 0.00 0.00 0.00 63 1015.2
20260505110526 36 112 1.7 3.5 0.00 0.00 0.00 62 1015.2
20260505102022 38 96 0.9 3.5 0.00 0.00 0.00 56 1015.0
20260505101544 39 0 0.0 3.5 0.00 0.00 0.00 55 1015.1
20260505101022 40 0 0.0 3.5 0.00 0.00 0.00 54 1015.0
20260505100524 40 0 0.0 6.1 0.00 0.00 0.00 54 1015.0
20260505100048 40 0 0.9 6.1 0.00 0.00 0.00 53 1014.9
20260505095526 41 321 2.6 6.1 0.00 0.00 0.00 53 1015.0
20260505095025 41 326 2.6 5.2 0.00 0.00 0.00 53 1015.0
20260505094542 41 293 2.6 6.1 0.00 0.00 0.00 52 1015.0
20260505094023 41 326 2.6 6.1 0.00 0.00 0.00 52 1015.0
20260505093523 41 332 2.6 4.3 0.00 0.00 0.00 53 1015.0
20260505093038 41 303 0.9 2.6 0.00 0.00 0.00 54 1015.1
20260505092523 42 323 0.9 2.6 0.00 0.00 0.00 53 1015.0
20260505092022 42 323 0.9 2.6 0.00 0.00 0.00 53 1015.0
20260505091549 42 0 0.9 4.3 0.00 0.00 0.00 52 1015.0
20260505091025 43 332 1.7 5.2 0.00 0.00 0.00 51 1015.0
20260505090522 43 339 1.7 5.2 0.00 0.00 0.00 51 1015.0
20260505090055 43 307 1.7 4.3 0.00 0.00 0.00 50 1014.9
20260505085522 43 305 1.7 4.3 0.00 0.00 0.00 50 1015.0
20260505085026 44 311 1.7 4.3 0.00 0.00 0.00 50 1014.9
20260505084538 44 327 1.7 4.3 0.00 0.00 0.00 50 1014.9
20260505084024 44 337 1.7 4.3 0.00 0.00 0.00 50 1015.0
20260505083525 44 340 2.6 5.2 0.00 0.00 0.00 49 1015.1
20260505083047 44 314 1.7 7.0 0.00 0.00 0.00 49 1015.1
20260505082527 45 323 1.7 7.0 0.00 0.00 0.00 49 1015.1
20260505082023 45 304 2.6 7.0 0.00 0.00 0.00 49 1015.0
20260505081543 44 327 1.7 5.2 0.00 0.00 0.00 50 1015.0
20260505081022 44 357 1.7 5.2 0.00 0.00 0.00 51 1015.1
20260505080526 45 311 0.9 8.7 0.00 0.00 0.00 52 1015.1
20260505080045 45 352 1.7 8.7 0.00 0.00 0.00 50 1015.2
20260505075522 45 49 2.6 8.7 0.00 0.00 0.00 50 1015.2
20260505075024 44 0 0.9 4.3 0.00 0.00 0.00 51 1015.2
20260505074539 45 351 1.7 4.3 0.00 0.00 0.00 51 1015.2
20260505074025 45 342 2.6 4.3 0.00 0.00 0.00 51 1015.2
20260505073524 45 4 0.9 4.3 0.00 0.00 0.00 51 1015.1
20260505073045 45 1 1.7 5.2 0.00 0.00 0.00 50 1015.2
20260505072526 45 28 2.6 5.2 0.00 0.00 0.00 49 1015.2
20260505072027 45 341 1.7 6.1 0.00 0.00 0.00 50 1015.0
20260505071543 45 352 3.5 6.1 0.00 0.00 0.00 51 1015.2
20260505071026 45 32 3.5 6.1 0.00 0.00 0.00 53 1015.2
20260505070523 45 13 1.7 6.1 0.00 0.00 0.00 56 1015.1
20260505070038 45 349 3.5 6.1 0.00 0.00 0.00 56 1015.0
20260505065523 45 344 2.6 5.2 0.00 0.00 0.00 56 1015.0
20260505065022 45 17 2.6 5.2 0.00 0.00 0.00 56 1015.1
20260505064536 45 340 1.7 5.2 0.00 0.00 0.00 57 1015.1
20260505064022 45 338 2.6 5.2 0.00 0.00 0.00 57 1015.0
20260505063522 45 359 1.7 6.1 0.00 0.00 0.00 56 1015.2
20260505063046 45 78 2.6 7.8 0.00 0.00 0.00 56 1015.1
20260505062522 45 12 2.6 7.8 0.00 0.00 0.00 56 1015.1
20260505062030 45 30 1.7 7.8 0.00 0.00 0.00 57 1015.2
20260505061539 45 60 3.5 7.8 0.00 0.00 0.00 57 1015.1
20260505061026 45 42 2.6 11.3 0.00 0.00 0.00 58 1015.1
20260505060527 45 30 2.6 11.3 0.00 0.00 0.00 58 1015.1
20260505060039 45 20 4.3 9.6 0.00 0.00 0.00 58 1015.0
20260505055528 45 22 4.3 11.3 0.00 0.00 0.00 58 1015.0
20260505055027 45 355 5.2 13.9 0.00 0.00 0.00 58 1015.0
20260505054558 45 2 6.1 13.9 0.00 0.00 0.00 58 1014.9
20260505054028 46 13 3.5 7.8 0.00 0.00 0.00 57 1014.9
20260505053528 47 356 3.5 8.7 0.00 0.00 0.00 54 1014.8
20260505053048 47 32 3.5 8.7 0.00 0.00 0.00 52 1014.6
20260505052527 48 321 5.2 8.7 0.00 0.00 0.00 51 1014.5
20260505052028 48 354 5.2 9.6 0.00 0.00 0.00 51 1014.5
20260505051542 48 356 4.3 9.6 0.00 0.00 0.00 51 1014.4
20260505051027 48 356 3.5 7.8 0.00 0.00 0.00 51 1014.3
20260505050528 48 319 3.5 7.8 0.00 0.00 0.00 51 1014.5
20260505041548 49 330 5.2 10.4 0.00 0.00 0.00 49 1014.2
20260505041026 49 325 5.2 9.6 0.00 0.00 0.00 49 1014.0
20260505040527 49 347 5.2 9.6 0.00 0.00 0.00 50 1014.0
20260505040042 49 333 3.5 6.1 0.00 0.00 0.00 50 1014.0
20260505035526 49 347 3.5 6.1 0.00 0.00 0.00 50 1014.0
20260505035026 49 13 2.6 6.1 0.00 0.00 0.00 50 1014.0
20260505034537 49 313 2.6 6.1 0.00 0.00 0.00 49 1014.0
20260505034027 49 336 1.7 6.1 0.00 0.00 0.00 49 1013.9
20260505033527 49 333 1.7 6.1 0.00 0.00 0.00 48 1013.8
20260505033037 49 274 1.7 6.1 0.00 0.00 0.00 49 1013.8
20260505032527 49 335 1.7 6.1 0.00 0.00 0.00 48 1013.8
20260505032026 49 307 2.6 7.8 0.00 0.00 0.00 48 1013.7
20260505031541 49 333 4.3 7.8 0.00 0.00 0.00 48 1013.6
20260505031028 49 1 2.6 10.4 0.00 0.00 0.00 48 1013.6
20260505030527 49 336 2.6 10.4 0.00 0.00 0.00 48 1013.5
20260505030053 49 353 3.5 7.8 0.00 0.00 0.00 48 1013.3
20260505025528 49 311 3.5 7.8 0.00 0.00 0.00 48 1013.4
20260505025026 49 330 2.6 7.8 0.00 0.00 0.00 48 1013.4
20260505024537 49 327 4.3 8.7 0.00 0.00 0.00 48 1013.3
20260505024026 49 352 4.3 10.4 0.00 0.00 0.00 48 1013.3
20260505023528 49 347 4.3 10.4 0.00 0.00 0.00 47 1013.2
20260505023042 50 325 4.3 13.0 0.00 0.00 0.00 47 1013.1
20260505022526 50 340 5.2 13.0 0.00 0.00 0.00 47 1013.2
20260505022027 50 338 4.3 9.6 0.00 0.00 0.00 47 1013.2
20260505021549 50 333 4.3 9.6 0.00 0.00 0.00 46 1013.0
20260505021026 50 1 4.3 9.6 0.00 0.00 0.00 46 1013.0
20260505020526 50 286 3.5 11.3 0.00 0.00 0.00 46 1012.9
20260505020049 50 347 4.3 13.0 0.00 0.00 0.00 46 1013.0
20260505015527 51 330 4.3 13.9 0.00 0.00 0.00 45 1012.8
20260505015026 51 314 6.1 13.9 0.00 0.00 0.00 45 1012.8
20260505014537 51 308 6.1 12.2 0.00 0.00 0.00 44 1012.7
20260505014026 51 304 5.2 13.9 0.00 0.00 0.00 44 1012.7
20260505013526 51 324 5.2 13.9 0.00 0.00 0.00 44 1012.8
20260505013043 52 314 4.3 10.4 0.00 0.00 0.00 43 1012.8
20260505012526 52 305 5.2 10.4 0.00 0.00 0.00 43 1012.8
20260505012026 52 333 4.3 10.4 0.00 0.00 0.00 43 1012.7